Theta_e
315 316 316 316 315 314 314 313 312 312 312 312 313 314 316 320 324 325 328 331 337 337 339 336 336 335 336 338 341 343 343 343 343 343 349 349 349 351 352 353 354 353 350 352 352
314 316 316 317 316 315 314 313 313 312 312 312 313 314 316 318 323 325 326 330 338 339 337 335 337 336 338 337 340 343 342 342 344 344 346 348 348 351 352 352 354 352 352 352 352
313 315 316 317 316 315 314 314 313 313 312 312 313 314 315 319 324 327 326 331 338 340 338 334 335 337 339 337 338 341 343 343 344 344 346 347 350 350 348 349 351 353 353 352 351
313 314 315 316 316 315 314 314 313 313 312 312 313 314 315 320 328 328 328 331 337 340 336 336 337 339 339 339 337 341 341 342 344 345 346 346 349 350 346 347 348 350 351 351 351
313 313 315 316 316 316 314 314 314 313 313 312 313 313 315 323 327 329 331 332 337 340 336 337 338 338 339 338 337 339 339 339 343 345 345 346 349 352 349 348 349 350 350 350 349
313 313 314 316 316 316 314 314 314 313 313 312 312 313 318 323 325 328 329 333 335 335 337 338 338 336 338 338 338 337 337 340 344 345 345 347 349 351 352 348 349 349 349 349 349
314 314 314 315 316 316 315 314 314 314 313 313 312 313 318 321 323 326 329 327 329 333 338 338 337 336 337 339 336 336 338 340 343 345 346 346 348 349 352 348 349 349 349 349 350
314 314 314 315 316 315 314 314 314 314 313 313 312 313 319 317 324 328 327 329 331 331 332 334 335 336 336 336 337 337 338 340 342 345 346 346 347 352 352 350 348 348 349 350 350
314 314 314 314 316 315 314 314 314 314 313 313 314 317 320 317 322 326 328 330 330 331 332 334 335 336 336 339 338 337 338 338 339 342 343 344 343 349 352 351 348 348 348 348 349
313 314 314 315 316 315 314 314 315 314 313 313 313 320 319 322 325 326 328 328 330 333 335 336 337 339 338 339 340 339 338 337 338 340 343 343 340 348 351 352 351 348 347 348 348
313 313 314 315 316 315 314 315 317 318 316 318 317 319 324 322 323 327 329 329 330 334 339 338 339 340 339 338 337 338 337 335 336 336 341 343 341 344 348 350 350 350 348 348 348
316 312 314 315 316 315 314 318 315 318 322 319 316 316 317 319 324 328 329 330 331 336 338 339 340 338 336 336 337 337 336 336 337 337 341 341 339 341 344 348 348 348 351 349 349
317 313 313 315 316 315 314 317 317 317 323 322 320 318 318 319 324 328 329 329 332 335 338 339 338 335 336 337 337 337 335 335 337 338 337 337 336 340 344 345 348 348 349 350 351
316 314 313 315 315 314 315 315 315 318 324 325 323 321 320 321 324 326 328 329 331 334 337 338 336 336 337 337 335 337 333 333 334 334 336 335 335 337 343 344 347 348 349 350 351
316 315 313 315 315 315 317 315 321 319 324 324 323 321 321 324 324 325 327 328 330 333 337 339 337 337 337 336 333 335 333 333 334 335 334 336 335 344 343 347 350 351 351 348 350
316 314 314 316 316 315 317 321 317 327 325 323 322 324 323 324 325 325 326 326 327 333 336 337 334 335 337 333 332 333 334 334 334 335 336 337 338 338 345 346 346 348 351 348 349
316 314 317 318 319 316 319 320 326 327 329 325 323 324 325 325 326 327 327 327 329 335 336 337 336 335 333 335 332 333 335 336 337 336 337 338 341 345 345 344 344 347 352 351 351
315 317 320 318 315 317 320 326 327 323 331 326 324 325 326 326 327 328 328 327 329 332 334 337 337 336 336 336 336 336 335 335 337 334 335 341 340 346 345 345 346 350 351 352 352
315 320 320 317 315 317 323 327 324 328 332 331 324 325 326 326 327 327 328 329 330 332 334 335 335 334 333 333 334 335 334 333 332 333 334 338 340 343 344 346 347 351 353 353 353
317 322 323 317 315 320 327 325 326 328 330 330 327 325 327 326 326 328 329 329 330 331 332 333 337 333 329 330 330 333 332 333 332 336 336 338 338 337 346 347 349 352 353 352 352
321 326 321 316 318 322 327 326 326 327 328 328 328 325 326 326 326 326 327 328 330 330 331 334 334 331 333 334 333 332 332 333 333 334 336 336 337 344 345 346 347 352 351 350 353
321 328 318 316 323 323 325 326 324 326 326 327 326 327 325 326 325 326 326 327 327 330 330 332 333 334 336 336 334 335 335 335 337 341 337 338 338 344 344 342 346 351 350 346 350
325 324 316 317 324 324 323 325 325 325 325 325 327 328 326 325 325 326 327 326 326 330 332 332 333 337 338 338 338 338 339 336 335 334 336 338 343 346 345 345 345 350 349 348 349
323 326 319 318 322 325 325 325 325 324 325 325 327 329 329 326 328 328 328 326 326 329 330 330 333 334 336 337 337 337 338 337 334 335 337 337 339 349 349 348 347 348 348 350 349
324 329 323 322 324 325 325 326 326 326 325 327 331 330 330 328 328 328 329 328 326 327 328 331 333 333 334 335 336 337 338 338 337 337 336 337 338 347 349 351 351 349 347 342 341
328 334 328 328 323 324 322 326 326 328 329 330 330 331 332 331 329 329 330 332 331 330 330 331 336 335 337 337 338 338 338 338 339 339 338 338 340 343 347 344 343 342 341 339 337
321 324 329 328 332 326 325 327 329 334 335 332 332 334 335 333 331 330 329 331 333 333 333 332 337 338 337 338 338 339 339 338 338 338 338 337 345 343 344 342 340 339 337 336 335
Wind_Speed
10 10 10 9 9 8 8 7 6 6 6 6 8 7 8 8 7 8 5 7 5 5 4 6 6 9 7 5 2 3 3 10 12 15 11 7 8 6 6 10 9 5 12 23 25
9 9 10 10 8 8 8 7 7 6 6 6 7 6 7 7 6 7 9 9 8 5 4 7 9 10 3 3 2 3 5 9 6 7 8 7 7 8 6 9 10 15 19 25 25
11 11 10 10 10 8 7 7 7 6 6 6 6 4 5 3 2 4 9 10 9 6 4 7 6 6 3 2 3 3 4 5 7 5 5 7 8 6 5 5 8 18 23 24 23
11 12 11 10 10 9 6 6 7 7 6 6 5 4 3 2 3 4 7 11 11 6 3 5 4 7 4 5 3 1 2 4 4 4 5 6 9 10 11 10 12 19 22 23 21
12 12 12 11 10 8 6 6 6 7 6 6 5 3 3 5 4 7 10 13 12 7 5 5 5 7 7 5 1 2 3 2 2 6 7 8 7 10 11 13 19 20 20 19 18
12 12 12 11 11 8 6 6 6 6 6 6 4 3 3 8 8 9 10 13 10 7 6 4 5 8 6 5 5 5 1 3 4 6 6 6 10 5 9 15 19 21 19 18 16
12 12 12 12 11 9 6 5 6 6 6 6 4 4 5 8 10 11 9 5 7 8 7 6 7 6 9 5 5 3 4 4 3 5 3 5 8 4 18 17 18 18 19 17 15
13 13 12 12 10 8 5 4 5 6 6 5 4 2 6 7 13 15 6 5 10 9 8 5 6 9 6 5 4 3 3 4 6 6 4 9 9 12 19 18 17 16 16 17 16
14 14 13 12 10 7 4 3 4 5 5 4 3 1 3 7 12 11 10 7 10 10 9 6 4 7 7 10 8 4 2 1 3 7 3 9 7 12 17 16 16 16 16 16 16
15 14 13 12 9 5 3 2 3 4 5 4 6 5 6 8 9 10 11 10 11 12 10 10 9 9 6 10 3 1 3 1 5 4 7 7 4 9 15 16 16 16 16 15 14
16 14 13 11 8 3 3 2 2 3 8 7 0 3 4 2 10 14 14 12 12 15 15 14 11 11 7 4 6 6 7 6 2 1 5 7 8 7 11 14 14 16 17 15 13
17 15 13 11 7 3 5 3 3 0 7 13 15 10 9 3 9 15 17 16 14 15 20 10 16 6 2 5 5 8 7 3 5 4 5 2 7 1 5 10 13 14 16 16 16
17 15 12 10 5 4 8 6 4 3 6 5 10 10 8 8 10 22 21 18 14 18 18 18 12 5 5 5 8 9 5 5 7 6 2 4 10 8 8 4 7 12 13 17 18
17 15 11 9 3 5 5 11 6 2 5 11 8 8 9 7 10 14 21 16 8 17 21 20 12 5 6 7 6 8 3 4 5 9 3 3 5 6 5 5 5 9 14 18 20
18 16 12 6 4 6 7 8 4 4 6 9 8 6 12 14 14 15 19 14 14 13 15 18 10 14 11 3 4 6 4 0 1 6 8 8 7 10 4 7 9 9 4 12 23
18 17 12 7 10 9 11 7 5 7 5 7 9 13 15 15 10 15 17 15 13 14 17 18 6 6 7 0 4 5 6 5 4 7 11 6 7 7 5 4 7 11 9 9 13
18 17 10 8 6 13 10 7 6 8 4 8 12 16 18 14 12 16 17 19 14 17 17 20 16 9 7 6 5 13 11 8 6 7 1 5 6 10 6 5 5 8 11 12 13
19 12 7 11 13 18 10 8 8 1 5 3 8 16 18 18 14 15 17 17 21 17 15 18 19 19 9 13 10 12 11 8 4 7 5 5 5 7 6 7 9 9 12 13 13
16 7 4 13 17 19 12 11 4 2 2 3 11 17 17 17 9 13 16 16 16 15 14 16 15 11 5 7 11 8 10 7 10 4 6 4 4 10 8 7 9 11 14 13 12
12 2 4 14 20 13 10 13 2 2 5 4 11 16 18 18 13 15 15 16 15 18 14 14 13 9 7 9 4 8 2 6 6 4 9 6 3 5 7 10 9 11 14 14 11
3 5 4 15 19 9 11 13 7 4 2 3 4 11 16 17 17 17 14 13 17 18 10 13 8 9 11 9 12 7 10 6 5 6 7 6 3 11 6 3 11 12 14 12 12
2 4 5 20 10 15 12 12 2 9 4 6 5 10 12 17 17 15 16 17 25 22 17 9 7 11 8 4 2 4 2 6 8 10 3 8 4 8 6 5 8 12 14 11 10
3 3 12 9 8 9 14 11 14 16 12 5 5 9 12 14 14 15 14 17 24 19 15 10 7 10 11 9 6 6 5 4 6 5 6 8 5 8 10 9 7 12 11 10 9
3 5 7 10 13 9 11 12 11 7 12 13 10 8 11 14 14 14 11 6 21 25 12 14 8 9 5 5 9 8 8 5 7 7 2 5 2 11 8 6 9 11 11 11 10
5 1 1 9 14 14 6 2 8 7 9 5 7 16 15 12 16 10 14 13 15 7 10 12 8 5 4 4 2 4 7 4 7 6 8 10 7 7 4 6 9 12 13 13 12
4 4 3 7 9 13 11 11 12 9 7 8 12 10 13 12 13 13 15 15 10 9 13 10 4 7 4 5 9 6 5 3 2 3 8 6 3 4 9 12 13 13 12 10 9
4 5 4 7 7 11 13 13 8 4 9 16 8 9 13 19 14 11 21 21 16 16 12 12 8 9 8 6 6 9 5 2 0 3 6 8 9 10 11 13 12 12 10 10 7
Wind_Direction
351 346 340 331 319 306 295 286 280 274 267 260 268 275 277 277 279 285 272 224 212 217 332 315 335 343 16 35 33 328 80 73 63 63 87 117 92 85 89 118 62 66 125 150 153
352 349 341 333 324 309 294 284 278 276 272 264 265 274 273 294 295 279 245 216 194 210 311 321 343 349 25 46 34 318 47 49 14 54 69 86 66 104 111 117 95 96 119 144 151
348 346 344 338 328 316 295 281 275 273 272 268 265 264 272 318 305 188 231 203 191 210 291 311 327 339 13 37 47 63 40 26 55 21 68 98 100 83 136 116 135 140 143 152 157
345 344 343 341 331 320 301 277 271 270 270 270 267 257 244 213 198 177 197 183 184 206 283 292 326 339 334 30 44 260 345 329 22 100 112 106 112 86 52 71 126 146 150 157 165
344 343 340 339 334 323 304 279 266 266 271 272 264 244 208 237 230 173 154 163 170 186 230 285 320 344 1 359 82 320 5 8 58 133 115 130 95 104 93 111 131 142 151 157 161
344 341 339 337 333 324 302 274 260 261 264 272 269 249 217 230 201 170 147 153 163 183 240 267 323 350 304 315 320 345 316 56 135 144 147 144 133 133 127 137 142 149 153 156 162
344 341 337 335 331 321 303 267 256 254 264 272 275 269 246 213 196 189 168 174 193 204 238 272 296 304 332 238 341 302 222 161 151 165 132 184 165 133 152 152 154 161 162 160 166
343 340 337 334 332 319 296 264 248 251 261 272 283 316 252 221 189 179 210 207 183 197 227 259 268 284 273 291 226 265 236 198 138 179 166 237 108 140 162 161 163 170 169 169 174
345 341 338 334 331 316 289 253 242 250 258 269 296 221 232 192 197 201 199 194 184 195 214 220 226 273 240 238 206 226 76 304 159 201 201 237 99 149 173 178 171 173 174 176 178
346 341 338 334 330 312 269 233 244 252 252 258 242 247 220 172 189 189 190 180 187 184 191 214 224 240 213 236 249 134 298 268 292 121 223 216 241 144 183 191 187 178 173 178 178
345 340 338 335 329 296 205 152 241 229 223 234 165 302 135 252 196 178 182 179 189 195 207 208 232 222 50 20 345 304 289 294 329 228 235 239 261 130 179 203 199 190 176 175 172
343 341 338 333 322 254 195 205 258 124 284 240 241 256 255 273 196 184 178 191 198 203 211 191 228 90 231 283 279 271 283 100 100 152 227 183 259 117 167 205 220 205 179 175 158
339 339 335 328 311 224 203 208 202 334 261 203 220 232 215 203 207 180 188 200 206 214 194 212 197 128 246 243 265 217 267 117 94 151 183 257 240 188 134 176 207 200 190 174 168
333 333 329 320 302 211 210 215 234 274 260 156 199 206 184 195 211 186 195 193 200 212 205 218 136 200 226 263 270 225 125 121 132 250 22 253 311 155 130 122 135 162 182 189 175
327 325 319 275 235 177 208 187 212 179 234 134 150 164 168 193 141 184 188 203 212 215 202 202 197 218 235 261 315 60 125 99 267 275 277 163 265 121 152 123 102 83 119 205 189
321 320 308 262 225 203 171 169 157 226 226 157 150 175 173 197 192 150 184 212 224 220 213 205 161 220 243 197 298 162 155 189 218 271 254 85 278 122 68 69 101 90 90 125 175
318 314 287 227 191 181 172 164 211 246 133 162 178 173 188 177 172 175 185 191 195 199 196 211 185 196 227 240 193 223 218 231 223 206 37 95 250 56 101 79 71 87 112 123 140
320 307 266 211 190 178 175 211 237 110 210 129 181 183 194 175 176 187 186 195 210 209 192 196 201 221 202 244 251 214 282 271 240 250 202 138 236 99 94 95 105 102 125 130 138
323 303 234 193 185 177 200 214 209 193 39 186 177 188 195 184 190 186 195 186 194 221 205 197 213 187 192 221 258 168 230 348 291 218 282 141 143 176 148 124 114 111 127 134 128
329 207 194 184 173 175 220 235 213 306 329 216 199 201 192 188 201 196 188 203 185 205 228 188 180 183 152 184 199 276 51 209 205 192 246 153 273 303 152 148 139 136 134 138 136
310 217 233 180 168 204 218 222 233 269 291 295 215 198 212 189 199 194 190 196 204 192 222 169 235 153 183 206 194 178 210 230 315 305 301 252 170 69 87 129 153 144 141 137 136
230 216 177 162 196 214 223 221 238 255 224 288 272 267 219 184 202 204 202 213 195 195 196 210 223 170 128 108 237 306 316 212 236 170 226 323 355 59 67 145 136 142 151 136 126
292 113 164 167 215 207 225 244 245 265 262 263 258 233 206 197 197 204 198 203 187 190 193 179 214 137 147 159 167 189 159 306 293 314 255 296 64 68 88 101 143 144 146 136 125
262 186 169 210 252 281 205 225 233 226 264 249 259 244 197 203 198 199 213 161 189 194 182 201 194 236 182 133 145 161 180 220 289 295 306 259 107 83 74 103 110 118 133 121 110
227 228 350 195 219 233 263 238 223 247 224 230 224 228 195 195 195 204 183 140 173 169 185 216 182 234 351 62 114 129 170 196 266 343 289 5 335 61 77 110 115 120 125 120 107
289 315 235 283 231 219 216 241 254 246 234 214 233 193 222 225 196 186 184 164 165 177 185 216 126 179 144 165 165 159 155 183 232 276 277 296 238 85 116 117 116 111 114 105 93
308 298 283 169 204 209 227 232 252 222 247 245 260 282 225 220 233 190 188 191 154 171 181 188 160 195 151 149 149 200 166 202 262 258 312 288 82 142 139 127 126 125 124 115 94